Weather History for KATP - March, 2014

Change the Weather History Date:

Monday, March 31, 2014

  Actual Average Record
Temperature  
Mean Temperature 68 °F -  
Max Temperature 71 °F - - ()
Min Temperature 64 °F - - ()
Cooling Degree Days 2    
Growing Degree Days 18 (Base 50)    
Moisture  
Dew Point 59 °F    
Average Humidity 71    
Maximum Humidity 83    
Minimum Humidity 60    
Precipitation  
Precipitation 0.00 in - - ()
Sea Level Pressure  
Sea Level Pressure 30.15 in    
Wind  
Wind Speed 15 mph (ESE)    
Max Wind Speed 20 mph    
Max Gust Speed 22 mph    
Visibility 8 miles    
Events      
T = Trace of Precipitation, MM = Missing Value Source: NWS Daily Summary

Daily Weather History Graph

Daily Weather History Graph

Search for Another Location

Airport or City:

Trip Planner

Search our weather history database for the weather conditions in past years. The results will help you decide how hot, cold, wet, or windy it might be!

Date:

Astronomy

Mar. 31, 2014 Rise Set
Actual Time 6:51 AM CDT 7:17 PM CDT
Civil Twilight 6:28 AM CDT 7:40 PM CDT
Nautical Twilight 6:01 AM CDT 8:07 PM CDT
Astronomical Twilight 5:33 AM CDT 8:35 PM CDT
Moon 7:20 AM CDT (3/31) 8:27 PM CDT (3/31)
Length of Visible Light 13h 12m
Length of Day
12h 25m
New Moon, 1% of the Moon is Illuminated
Mar 31
New Moon
Apr 7
First Quarter
Apr 15
Full
Apr 22
Last Quarter
Apr 29
New

Hourly Weather History & Observations

Time (CDT) Temp. Dew Point Humidity Pressure Visibility Wind Dir Wind Speed Gust Speed Precip Events Conditions
12:15 AM 64.4 °F 51.8 °F 64% 30.19 in 9.0 mi East 17.3 mph - N/A   Clear
12:35 AM 64.4 °F 51.8 °F 64% 30.18 in 9.0 mi East 17.3 mph - N/A   Clear
12:55 AM 66.2 °F 53.6 °F 64% 30.18 in 9.0 mi East 15.0 mph - N/A   Clear
1:15 AM 64.4 °F 53.6 °F 68% 30.19 in 9.0 mi East 13.8 mph - N/A   Clear
1:35 AM 64.4 °F 51.8 °F 64% 30.19 in 10.0 mi East 11.5 mph - N/A   Clear
1:55 AM 64.4 °F 53.6 °F 68% 30.18 in 9.0 mi East 12.7 mph - N/A   Clear
2:15 AM 64.4 °F 51.8 °F 64% 30.18 in 9.0 mi East 11.5 mph - N/A   Clear
2:35 AM 64.4 °F 51.8 °F 64% 30.18 in - ESE 11.5 mph - N/A   Clear
2:55 AM 64.4 °F 51.8 °F 64% 30.17 in 10.0 mi East 11.5 mph - N/A   Clear
3:15 AM 64.4 °F 53.6 °F 68% 30.16 in 9.0 mi East 12.7 mph - N/A   Clear
3:35 AM 64.4 °F 53.6 °F 68% 30.16 in 9.0 mi East 9.2 mph - N/A   Clear
3:55 AM 64.4 °F 53.6 °F 68% 30.15 in 10.0 mi East 10.4 mph - N/A   Clear
4:15 AM 64.4 °F 53.6 °F 68% 30.14 in 10.0 mi East 12.7 mph - N/A   Clear
4:35 AM 64.4 °F 53.6 °F 68% 30.13 in 9.0 mi ESE 13.8 mph - N/A   Clear
4:55 AM 66.2 °F 53.6 °F 64% 30.14 in 9.0 mi ESE 15.0 mph - N/A   Clear
5:15 AM 66.2 °F 51.8 °F 60% 30.13 in 9.0 mi SE 16.1 mph - N/A   Clear
5:35 AM 66.2 °F 53.6 °F 64% 30.14 in 10.0 mi SE 16.1 mph - N/A   Clear
5:55 AM 66.2 °F 53.6 °F 64% 30.15 in 10.0 mi SE 15.0 mph 21.9 mph N/A   Clear
6:15 AM 66.2 °F 53.6 °F 64% 30.15 in 9.0 mi SE 16.1 mph - N/A   Partly Cloudy
6:35 AM 66.2 °F 53.6 °F 64% 30.15 in 10.0 mi SE 16.1 mph - N/A   Clear
6:55 AM 66.2 °F 53.6 °F 64% 30.15 in 9.0 mi SE 16.1 mph - N/A   Clear
7:15 AM 66.2 °F 53.6 °F 64% 30.16 in 9.0 mi SE 15.0 mph - N/A   Clear
7:35 AM 66.2 °F 55.4 °F 68% 30.17 in 9.0 mi SE 13.8 mph - N/A   Clear
7:55 AM 66.2 °F 55.4 °F 68% 30.18 in 9.0 mi SE 13.8 mph - N/A   Clear
8:15 AM 66.2 °F 55.4 °F 68% 30.18 in 9.0 mi SE 16.1 mph - N/A   Clear
8:35 AM 66.2 °F 55.4 °F 68% 30.19 in 9.0 mi SE 13.8 mph - N/A   Clear
8:55 AM 68.0 °F 57.2 °F 68% 30.20 in 9.0 mi SE 15.0 mph - N/A   Clear
9:15 AM 68.0 °F 55.4 °F 64% 30.20 in 9.0 mi SE 17.3 mph - N/A   Clear
9:35 AM 68.0 °F 57.2 °F 68% 30.20 in 9.0 mi SE 17.3 mph - N/A   Clear
9:55 AM 68.0 °F 57.2 °F 68% 30.19 in 9.0 mi SE 18.4 mph - N/A   Clear
10:15 AM 68.0 °F 57.2 °F 68% 30.20 in 7.0 mi SE 16.1 mph - N/A   Clear
10:35 AM 68.0 °F 57.2 °F 68% 30.20 in 9.0 mi SE 17.3 mph - N/A   Clear
10:55 AM 68.0 °F 57.2 °F 68% 30.20 in 9.0 mi SE 17.3 mph - N/A   Clear
11:15 AM 68.0 °F 57.2 °F 68% 30.20 in 9.0 mi ESE 17.3 mph - N/A   Clear
11:35 AM 68.0 °F 59.0 °F 73% 30.20 in 9.0 mi ESE 13.8 mph - N/A   Clear
11:55 AM 68.0 °F 59.0 °F 73% 30.20 in 9.0 mi ESE 16.1 mph - N/A   Clear
12:15 PM 68.0 °F 59.0 °F 73% 30.20 in 9.0 mi ESE 12.7 mph - N/A   Clear
12:35 PM 68.0 °F 59.0 °F 73% 30.20 in 9.0 mi ESE 13.8 mph - N/A   Clear
12:55 PM 68.0 °F 59.0 °F 73% 30.18 in 9.0 mi ESE 13.8 mph - N/A   Clear
1:15 PM 69.8 °F 60.8 °F 73% 30.17 in 9.0 mi ESE 15.0 mph - N/A   Clear
1:35 PM 69.8 °F 60.8 °F 73% 30.16 in 9.0 mi ESE 17.3 mph - N/A   Clear
1:55 PM 69.8 °F 60.8 °F 73% 30.16 in 9.0 mi ESE 15.0 mph - N/A   Clear
2:15 PM 69.8 °F 60.8 °F 73% 30.16 in 9.0 mi ESE 15.0 mph - N/A   Clear
2:35 PM 69.8 °F 60.8 °F 73% 30.16 in 9.0 mi ESE 13.8 mph - N/A   Clear
2:55 PM 69.8 °F 60.8 °F 73% 30.16 in 9.0 mi ESE 11.5 mph - N/A   Clear
3:15 PM 69.8 °F 60.8 °F 73% 30.15 in 9.0 mi ESE 11.5 mph - N/A   Clear
3:35 PM 69.8 °F 60.8 °F 73% 30.14 in 9.0 mi ESE 12.7 mph - N/A   Clear
3:55 PM 71.6 °F 60.8 °F 69% 30.14 in 9.0 mi ESE 12.7 mph - N/A   Clear
4:15 PM 71.6 °F 60.8 °F 69% 30.13 in 9.0 mi ESE 13.8 mph - N/A   Clear
4:35 PM 71.6 °F 62.6 °F 73% 30.12 in 9.0 mi ESE 15.0 mph - N/A   Clear
4:55 PM 71.6 °F 62.6 °F 73% 30.12 in 8.0 mi ESE 13.8 mph - N/A   Clear
5:15 PM 71.6 °F 62.6 °F 73% 30.12 in 8.0 mi East 16.1 mph - N/A   Clear
5:35 PM 71.6 °F 62.6 °F 73% 30.12 in 8.0 mi East 13.8 mph - N/A   Clear
5:55 PM 71.6 °F 62.6 °F 73% 30.12 in 8.0 mi ESE 15.0 mph - N/A   Clear
6:15 PM 71.6 °F 62.6 °F 73% 30.11 in 8.0 mi ESE 17.3 mph - N/A   Clear
6:35 PM 71.6 °F 64.4 °F 78% 30.10 in 7.0 mi ESE 17.3 mph - N/A   Clear
6:55 PM 71.6 °F 64.4 °F 78% 30.10 in 7.0 mi ESE 17.3 mph - N/A   Clear
7:15 PM 71.6 °F 64.4 °F 78% 30.10 in 7.0 mi ESE 17.3 mph - N/A   Clear
7:35 PM 71.6 °F 64.4 °F 78% 30.10 in 7.0 mi ESE 17.3 mph - N/A   Clear
7:55 PM 71.6 °F 64.4 °F 78% 30.11 in 7.0 mi ESE 16.1 mph - N/A   Partly Cloudy
8:15 PM 71.6 °F 64.4 °F 78% 30.11 in 7.0 mi ESE 17.3 mph - N/A   Mostly Cloudy
8:35 PM 71.6 °F 64.4 °F 78% 30.12 in 7.0 mi ESE 18.4 mph - N/A   Mostly Cloudy
8:55 PM 71.6 °F 64.4 °F 78% 30.12 in 7.0 mi ESE 17.3 mph - N/A   Partly Cloudy
9:15 PM 71.6 °F 66.2 °F 83% 30.13 in 7.0 mi SE 16.1 mph - N/A   Partly Cloudy
9:35 PM 71.6 °F 66.2 °F 83% 30.14 in 6.0 mi SE 16.1 mph - N/A   Haze
9:55 PM 71.6 °F 64.4 °F 78% 30.14 in 7.0 mi SE 18.4 mph - N/A   Clear
10:15 PM 71.6 °F 66.2 °F 83% 30.14 in 7.0 mi SE 17.3 mph - N/A   Clear
10:35 PM 71.6 °F 66.2 °F 83% 30.14 in 6.0 mi SE 18.4 mph - N/A   Haze
10:55 PM 71.6 °F 66.2 °F 83% 30.14 in 6.0 mi SE 17.3 mph - N/A   Haze
11:15 PM 71.6 °F 66.2 °F 83% 30.13 in 6.0 mi SE 18.4 mph - N/A   Haze
11:35 PM 71.6 °F 66.2 °F 83% 30.13 in 6.0 mi SE 18.4 mph - N/A   Haze
11:55 PM 71.6 °F 66.2 °F 83% 30.12 in 6.0 mi SE 19.6 mph - N/A   Haze